#timestamp,LO_Frequency,Hit,StdDev 
1511971215.8,286047004.6,P
1511971235.7,286047005.0,N
1511971255.5,286047003.6,N
1511971275.3,286047003.7,N
1511971295.2,286047004.2,N
1511971315.9,286047003.7,N
1511971335.7,286047008.3,Y
1511971355.6,286047001.6,P
1511971375.4,286047002.3,N
1511971395.2,286047005.1,P
1511971415.1,286047006.8,Y
1511971416.0,286047006.8,P
1511971435.8,286047002.7,N
1511971455.6,286046998.8,N
1511971475.5,286047002.4,N
1511971495.3,286047005.7,N
1511971515.1,286047008.4,Y
1511971535.9,286047003.5,P
1511971555.7,286047001.9,P
1511971575.5,286047001.5,N
1511971595.4,286047005.2,Y
1511971615.2,286047004.0,P
1511971635.0,286047003.9,P
1511971635.9,286047003.9,P
1511971655.8,286046999.7,N
1511971675.6,286046998.2,N
1511971695.4,286046995.1,N
1511971715.2,286046994.6,N
1511971735.1,286046993.6,N
1511971736.0,286046993.6,N
1511971755.8,286046997.7,N
1511971775.6,286046997.8,N
1511971795.5,286047001.2,N
1511971815.3,286046997.6,N
1511971835.1,286046993.8,N
1511971855.9,286046997.4,N
1511971875.7,286046996.5,N
1511971895.5,286046995.0,N
1511971915.4,286046997.8,N
1511971935.2,286046995.6,N
1511971955.0,286046999.1,N
1511971955.9,286046999.1,N
1511971975.8,286046997.4,N
1511971995.6,286046996.4,N
1511972015.4,286046993.5,N
1511972035.3,286046993.8,N
1511972055.1,286046995.3,N
1511972056.0,286046995.3,N
1511972075.8,286046994.5,N
1511972095.6,286046992.1,N
1511972115.5,286046993.5,N
1511972135.3,286046993.4,N
1511972155.1,286046996.9,N
1511972175.9,286047001.4,N
1511972195.7,286047002.4,N
1511972215.5,286047001.9,N
1511972235.4,286047000.4,N
1511972255.2,286047002.0,N
1511972275.0,286047006.8,N
1511972275.9,286047006.8,N
1511972295.8,286047007.9,N
1511972315.6,286047010.7,N
1511972335.4,286047004.5,N
1511972355.3,286047005.8,N
1511972375.1,286047009.8,N
1511972376.0,286047009.8,N
1511972395.8,286047012.4,N
1511972415.7,286047008.1,N
1511972435.5,286047006.7,N
1511972455.3,286047008.1,N
1511972475.1,286047008.5,N
1511972495.9,286047005.3,N
1511972515.7,286047002.9,N
1511972535.5,286047003.7,N
1511972555.4,286047002.4,N
1511972575.2,286046997.0,N
1511972595.0,286046994.9,N
1511972595.9,286046994.9,N
1511972615.8,286046994.2,N
1511972635.6,286046993.0,N
1511972655.4,286046990.4,N
1511972675.3,286046993.1,N
1511972695.1,286046994.7,N
1511972696.0,286046994.7,N
1511972715.8,286046990.2,N
1511972735.7,286046989.5,N
1511972755.5,286046989.6,N
1511972775.3,286046989.3,N
1511972795.2,286046988.3,N
1511972815.9,286046986.8,N
1511972835.7,286046985.1,N
1511972855.5,286046985.2,N
1511972875.4,286046983.9,N
1511972895.2,286046986.6,N
1511972915.0,286046989.3,N
1511972915.9,286046989.3,N
1511972935.8,286046989.0,N
1511972955.6,286046989.4,N
1511972975.4,286046986.2,N
1511972995.3,286046984.2,N
1511973015.1,286046988.4,N
1511973016.0,286046988.4,N
1511973035.8,286046991.6,N
1511973055.7,286046990.7,N
1511973075.5,286046992.6,N
1511973095.3,286046994.7,N
1511973115.2,286046993.5,N
1511973135.9,286046994.1,N
1511973155.7,286046995.7,N
1511973175.6,286046999.1,N
1511973195.4,286046996.3,N
1511973215.2,286046996.1,N
1511973235.0,286046993.7,N
1511973236.0,286046993.7,N
1511973255.8,286046994.0,N
1511973275.6,286046997.2,N
1511973295.4,286046995.2,N
1511973315.3,286046999.3,N
1511973335.1,286046996.5,N
1511973355.8,286047001.2,N
1511973375.7,286046998.9,N
1511973395.5,286047002.4,N
1511973415.3,286047002.6,N
1511973435.2,286047002.4,N
1511973455.9,286047000.7,N
1511973475.7,286047000.6,N
1511973495.6,286046998.9,N
1511973515.4,286046996.9,N
1511973535.2,286046999.6,N
1511973555.1,286046998.3,N
1511973556.0,286046998.3,N
1511973575.8,286047005.6,N
1511973595.6,286047004.5,N
1511973615.5,286047006.1,N
1511973635.3,286047005.3,N
1511973655.1,286047008.0,N
1511973675.8,286047006.9,N
1511973695.7,286047006.6,N
1511973715.5,286047009.0,N
1511973735.3,286047005.1,N
1511973755.2,286047005.1,N
1511973775.9,286047004.5,N
1511973795.7,286047004.8,N
1511973815.6,286047007.4,N
1511973835.4,286047009.6,N
1511973855.2,286047013.1,Y
1511973875.1,286047010.5,P
1511973876.0,286047010.5,N
1511973895.8,286047010.7,N
1511973915.6,286047010.2,N
1511973935.5,286047007.7,N
1511973955.3,286047005.2,N
1511973975.1,286047005.7,N
1511973995.9,286047001.4,N
1511974015.7,286047001.7,N
1511974035.5,286047001.5,N
1511974055.4,286047004.2,N
1511974075.2,286047005.2,N
1511974095.0,286047003.0,N
1511974095.9,286047003.0,N
1511974115.7,286047002.9,N
1511974135.6,286047007.3,N
1511974155.4,286047005.4,N
1511974175.2,286047002.5,N
1511974195.1,286047007.0,N
1511974196.0,286047007.0,N
1511974215.8,286047006.8,N
1511974235.6,286047010.5,Y
1511974255.5,286047001.6,P
1511974275.3,286047001.7,N
1511974295.1,286047000.5,N
1511974315.9,286046998.3,N
1511974335.7,286046999.2,N
1511974355.5,286046998.4,N
1511974375.4,286047000.7,N
1511974395.2,286047003.0,N
1511974415.0,286047000.1,N
1511974415.9,286047000.1,N
1511974435.8,286046998.9,N
1511974455.6,286046997.3,N
1511974475.4,286046997.9,N
1511974495.2,286046997.5,N
1511974515.1,286046994.6,N
1511974516.0,286046994.6,N
1511974535.8,286046992.2,N
1511974555.6,286046995.9,N
1511974575.5,286046995.9,N
1511974595.3,286046997.0,N
1511974615.1,286046999.4,N
1511974635.9,286046996.7,N
1511974655.7,286046998.5,N
1511974675.5,286046997.1,N
1511974695.4,286046997.1,N
1511974715.2,286046997.1,N
1511974735.0,286047000.1,N
1511974735.9,286047000.1,N
1511974755.8,286047000.2,N
1511974775.6,286047001.2,N
1511974795.4,286046998.2,N
